Sant Hilari Sacalm





Hora UTC 01:55
Temperatura 24.0 ºC
Suelo 15 cm 16.8 ºC
Humedad 27.8 %
Presión 1010.5 hPa
Pluja 0.0 mm
Velocidad viento 13.3 km/h
Dirección viento SSW
Radiación solar 0.1 W/m²

Datos diarios 2022-05-23



Hora UTC (invierno +1h; verano +2h)
Temperatura (ºC) Humedad (%) Presión (hPa) Velocidad viento (km/h) Precipitación (mm) Radiación solar (W/m²)
Hora UTC Aire Suelo 15 cm Humedad Presión Vel. Dir. Vel. Max Dir. Intent. máx 5 min. Rad. Sol.
00:05 23.4 15.1 18.3 1011.3 0.9 SE 0.9 SSE 0.0 0.1
00:10 23.4 15.1 18.3 1011.3 6.1 SW 16.9 SSW 0.0 0.1
00:15 23.5 15.2 19.3 1011.2 8.3 WSW 19.6 SSW 0.0 0.1
00:20 23.6 15.2 20.1 1011.2 10.1 SW 19.6 S 0.0 0.1
00:25 24.0 15.3 20.5 1011.2 11.3 SSW 30.4 SW 0.0 0.1
00:30 24.2 15.7 20.6 1011.1 12.3 SSW 22.3 SW 0.0 0.1
00:35 24.2 16.2 21.5 1011.2 14.4 SW 33.1 SW 0.0 0.1
00:40 24.3 17.0 22.4 1011.3 16.8 SSW 35.8 SW 0.0 0.1
00:45 24.2 17.5 22.9 1011.2 11.9 SSW 22.3 SSW 0.0 0.1
00:50 23.9 17.6 23.2 1011.1 9.7 SW 25.0 SSW 0.0 0.1
00:55 23.9 17.7 23.2 1010.9 8.5 SSW 16.9 SW 0.0 0.1
01:00 23.6 17.5 24.3 1010.6 4.5 SW 11.5 SW 0.0 0.1
01:05 23.2 17.3 23.3 1010.4 2.7 W 16.9 W 0.0 0.1
01:10 22.8 17.1 23.2 1010.2 6.3 WSW 14.2 SW 0.0 0.1
01:15 22.4 17.0 23.4 1010.4 8.1 SW 16.9 WSW 0.0 0.1
01:20 22.0 16.8 24.9 1010.7 6.5 SW 14.2 SW 0.0 0.1
01:25 22.2 16.5 27.2 1010.7 12.3 SSW 27.7 SSW 0.0 0.1
01:30 23.4 16.5 26.5 1010.8 10.3 SW 22.3 SW 0.0 0.1
01:35 23.1 16.5 28.1 1010.8 10.7 WSW 16.9 SW 0.0 0.1
01:40 23.2 16.5 28.5 1010.7 8.2 SW 22.3 SW 0.0 0.1
01:45 23.7 16.6 27.8 1010.6 10.2 SW 19.6 WSW 0.0 0.1
01:50 23.7 16.6 27.9 1010.5 13.0 SSW 27.7 SW 0.0 0.1
01:55 24.0 16.8 27.8 1010.5 13.3 SSW 25.0 WSW 0.0 0.1
Máxima 24.3 17.7 28.5 1011.3 16.8 SSW 35.8 SW 0.0 0.1
Mínima 20 15.1 18.3 1010.2
Total 0.0